User: anonymous   Login
Location: ????
(55.2778°N, 39.2433°E)
Time: 21:00:16
(UTC+00:00)
Language:

FLOCK 4Y 26 - Orbit

View from above orbital plane
View from above orbital plane
View from above satellite
View from above satellite

Ground track
Ground track

The orbit data is extracted from the following two-line orbital elements,

1 55070U 23001BP  24262.79685957  .00031274  00000-0  94999-3 0  9995
2 55070  97.4187 324.9506 0011108 190.5639 169.5372 15.33952668 95115
Epoch (UTC): 18 September 2024 19:07:28
Eccentricity: 0.0011108
inclination: 97.4187°
perigee height: 456 km
apogee height: 471 km
right ascension of ascending node: 324.9506°
argument of perigee: 190.5639°
revolutions per day: 15.33952668
mean anomaly at epoch: 169.5372°
orbit number at epoch: 9511

The dashed part of the orbit path shows where the satellite is in the earth's shadow,  

DLR